This demonstration page uses our WeatherBlox Daily Observations layout. Learn more.

Left ArrowRight Arrow

31.31129, -92.44514

Hourly Observations for December 4, 2020

Temp ( °F °C ) Dew Point ( °F °C ) Humidity (%) Winds ( mph kmh ) Pressure ( in mb ) Visibility ( mi km ) Precip ( " mm )
12:27 am 00:27 Cloudy 44 6.7 41 5 89 89 NW 12 19 30.17 1022 9 14 0.00 0.00
12:53 am 00:53 Cloudy 43 6.1 41 5 93 93 NNW 9 15 30.19 1022 8 13 0.00 0.00
1:13 am 01:13 Mostly Cloudy 43 6.1 41 5 93 93 NW 8 13 30.17 1022 8 13 0.00 0.00
1:43 am 01:43 Partly Cloudy 42 5.6 41 5 96 96 NNW 7 11 30.17 1022 8 13 0.00 0.00
1:53 am 01:53 Mostly Clear 42 5.6 40 4.4 92 92 NW 6 9 30.19 1022 7 11 0.00 0.00
2:05 am 02:05 Partly Cloudy 42 5.6 40 4.4 92 92 NW 6 9 30.17 1022 7 11 0.00 0.00
2:16 am 02:16 Mostly Cloudy 41 5 40 4.4 96 96 NNW 5 7 30.17 1022 7 11 0.00 0.00
2:53 am 02:53 Mostly Cloudy 42 5.6 40 4.4 92 92 NNW 7 11 30.19 1022 8 13 0.00 0.00
3:05 am 03:05 Partly Cloudy 41 5 39 3.9 93 93 NNW 8 13 30.17 1022 8 13 0.00 0.00
3:53 am 03:53 Mostly Clear 40 4.4 39 3.9 97 97 NNW 6 9 30.19 1022 6 10 0.00 0.00
4:18 am 04:18 Mostly Cloudy 40 4.4 39 3.9 97 97 NNW 7 11 30.17 1022 6 10 0.00 0.00
4:53 am 04:53 Cloudy 41 5 39 3.9 93 93 NNW 7 11 30.18 1022 7 11 0.00 0.00
5:53 am 05:53 Cloudy 41 5 40 4.4 96 96 NNW 7 11 30.19 1022 7 11 0.00 0.00
6:53 am 06:53 Cloudy 41 5 40 4.4 96 96 NW 6 9 30.21 1023 7 11 0.00 0.00
7:53 am 07:53 Cloudy 40 4.4 39 3.9 97 97 NW 9 15 30.23 1024 5 8 0.00 0.00
8:08 am 08:08 Cloudy 40 4.4 39 3.9 97 97 NW 7 11 30.23 1024 6 10 0.00 0.00
8:32 am 08:32 Cloudy 40 4.4 39 3.9 97 97 NW 10 17 30.24 1024 7 11 0.00 0.00
8:53 am 08:53 Cloudy 41 5 39 3.9 93 93 NW 8 13 30.26 1025 7 11 0.00 0.00
9:36 am 09:36 Cloudy 41 5 40 4.4 96 96 NW 12 19 30.26 1025 4 6 0.00 0.00
9:53 am 09:53 Cloudy 41 5 39 3.9 93 93 NW 7 11 30.27 1025 6 10 0.00 0.00
10:08 am 10:08 Cloudy 41 5 39 3.9 93 93 NNW 12 19 30.26 1025 8 13 0.00 0.00
10:53 am 10:53 Cloudy 41 5 39 3.9 93 93 NNW 9 15 30.28 1025 9 14 0.00 0.00
11:53 am 11:53 Cloudy 43 6.1 39 3.9 86 86 NNW 10 17 30.25 1025 10 16 0.00 0.00
12:02 pm 12:02 Cloudy 43 6.1 39 3.9 86 86 NNW 9 15 30.24 1024 10 16 0.00 0.00
12:49 pm 12:49 Cloudy 45 7 39 4 81 81 NW 7 11 30.21 1023 10 16 0.00 0.00
12:53 pm 12:53 Cloudy 44 6.7 39 3.9 83 83 WNW 7 11 30.22 1024 10 16 0.00 0.00
1:43 pm 13:43 Cloudy 45 7.2 39 3.9 80 80 NNW 6 9 30.19 1022 10 16 0.00 0.00
1:53 pm 13:53 Cloudy 45 7.2 39 3.9 80 80 N 9 15 30.20 1023 10 16 0.00 0.00
2:53 pm 14:53 Cloudy 47 8.3 39 3.9 74 74 N 5 7 30.19 1022 10 16 0.00 0.00
3:43 pm 15:43 Partly Cloudy 47 8.3 39 3.9 74 74 NW 7 11 30.18 1022 10 16 0.00 0.00
3:53 pm 15:53 Mostly Sunny 47 8.3 39 3.9 74 74 NW 7 11 30.20 1023 10 16 0.00 0.00
4:53 pm 16:53 Sunny 46 7.8 39 3.9 77 77 NW 7 11 30.20 1023 10 16 0.00 0.00
5:53 pm 17:53 Clear 42 5.6 38 3.3 85 85 NW 6 9 30.21 1023 10 16 0.00 0.00
6:53 pm 18:53 Clear 42 5.6 38 3.3 85 85 NNW 3 6 30.21 1023 10 16 0.00 0.00
7:53 pm 19:53 Clear 40 4.4 37 2.8 89 89 Calm 30.22 1023 10 16 0.00 0.00
8:53 pm 20:53 Clear 38 3.3 37 2.8 97 97 Calm 30.23 1024 7 11 0.00 0.00
9:53 pm 21:53 Clear 38 3.3 37 2.8 97 97 S 3 6 30.25 1024 6 10 0.00 0.00
10:33 pm 22:33 Clear 36 2.2 36 2.2 100 100 Calm 30.24 1024 2 2 0.00 0.00
10:42 pm 22:42 Clear 36 2.2 35 1.7 97 97 Calm 30.25 1025 1 1 0.00 0.00
10:47 pm 22:47 Clear 37 3 36 2 93 93 Calm 30.24 1024 2 3 0.00 0.00
10:53 pm 22:53 Clear 36 2.2 36 2.2 100 100 Calm 30.26 1025 5 8 0.00 0.00
11:53 pm 23:53 Clear 35 1.7 34 1.1 96 96 Calm 30.25 1025 4 6 0.00 0.00

Powered by AerisWeather